SCP
0 0 0 0 0 0 0 0 0 0 0 0 0 0 0 1 1 1 1 1 1 1 1 1 1 1 1 0 0 0 1 0 0 0 0 0 0 0 0 0 0 0 0
0 0 0 0 0 0 0 0 0 0 0 0 0 0 0 1 1 1 1 1 1 1 1 1 1 1 1 1 0 0 1 0 0 0 0 0 0 0 0 0 0 0 0
0 0 0 0 0 0 0 0 0 0 0 0 0 0 1 1 1 1 1 1 1 1 1 1 1 1 1 1 1 0 0 1 0 0 0 0 0 0 0 0 0 0 0
0 0 0 0 0 0 0 0 0 0 0 0 0 0 0 1 1 1 1 1 1 1 1 0 0 0 0 0 1 1 1 1 1 1 0 0 0 0 0 0 1 0 0
0 0 0 0 0 0 0 0 0 0 0 0 0 0 0 0 0 0 0 0 0 0 0 0 0 0 0 0 1 1 1 1 1 1 0 0 0 0 0 0 0 0 0
0 0 0 0 0 0 0 0 0 0 0 0 0 0 0 0 0 0 0 0 0 0 0 0 0 0 0 0 0 1 1 1 1 0 0 0 0 0 0 0 0 0 0
0 0 0 0 0 0 0 0 0 0 0 0 0 0 0 0 0 0 0 0 0 0 0 0 0 0 0 0 0 1 1 1 1 0 0 0 0 0 0 0 0 0 0
0 0 0 0 0 0 0 0 0 0 0 0 0 0 0 0 0 0 0 0 0 0 0 0 0 0 0 0 0 0 1 1 1 0 0 0 0 0 0 0 0 0 1
0 0 0 0 0 0 0 0 0 0 0 0 0 0 0 0 0 0 0 0 0 0 0 0 0 0 0 0 0 1 1 1 1 0 0 0 0 0 0 0 0 0 1
0 0 0 0 0 0 0 0 0 0 0 0 0 0 0 0 0 0 0 0 0 0 0 0 0 0 0 0 0 1 1 1 1 0 0 0 0 0 0 0 0 0 0
0 0 0 0 0 0 0 0 0 0 0 0 0 0 0 0 0 0 0 0 0 0 0 0 0 0 0 0 0 1 1 1 0 0 0 0 0 0 0 0 0 0 0
0 0 0 0 0 0 0 0 0 0 0 0 0 0 0 0 0 0 0 0 0 0 0 0 0 0 0 0 0 0 0 0 0 0 0 1 1 0 0 0 0 0 0
0 0 0 0 0 0 0 0 0 0 0 0 0 0 0 0 0 0 0 0 0 0 0 0 0 0 0 0 0 0 0 0 0 0 1 1 1 0 0 0 0 0 0
0 0 0 0 0 0 0 0 0 0 0 0 0 0 0 0 0 0 0 0 0 0 0 0 0 0 0 0 0 0 0 0 0 1 1 1 1 1 0 0 0 0 0
0 0 0 0 0 0 0 0 0 0 0 0 0 0 0 0 0 0 0 0 0 0 0 0 0 0 0 0 0 0 0 0 1 1 1 1 1 1 1 0 0 0 0
0 0 0 0 0 0 0 0 0 0 0 0 0 0 0 0 0 0 0 0 0 0 0 0 0 0 0 0 0 0 0 0 1 1 1 1 1 1 1 1 1 0 0
0 0 0 0 0 0 0 0 0 0 0 0 0 0 0 0 0 0 0 0 0 0 0 0 0 0 0 0 0 0 0 0 0 1 0 0 1 1 1 1 1 1 1
0 0 0 0 0 0 0 0 0 0 0 0 0 0 0 0 0 0 0 0 0 0 0 0 0 0 0 0 0 0 0 0 0 0 0 0 0 0 1 1 1 1 1
0 0 0 0 0 0 0 0 0 0 0 0 0 0 0 0 0 0 0 0 0 0 0 0 0 0 0 0 0 0 0 0 0 0 0 0 0 0 0 1 1 1 1
0 0 0 0 0 0 0 0 0 0 0 0 0 0 0 0 0 0 0 0 0 0 0 0 0 0 0 0 0 0 0 0 0 0 0 0 0 0 1 1 1 1 0
0 0 0 0 0 0 0 0 0 0 0 0 0 0 0 0 0 0 0 0 0 0 0 0 0 0 0 0 0 0 0 0 0 0 0 0 0 0 1 1 0 0 0
0 0 0 0 0 0 0 0 0 0 0 0 0 0 0 0 0 0 0 0 0 0 0 0 0 0 0 0 0 0 0 0 0 0 0 0 0 0 0 0 0 0 0
0 0 0 0 0 0 0 0 0 0 0 0 0 0 0 0 0 0 0 0 0 0 0 0 0 0 0 0 0 0 0 0 0 0 0 0 0 0 0 0 0 0 0
0 0 0 0 0 0 0 0 0 0 0 0 0 0 0 0 0 0 0 0 0 0 0 0 0 0 0 0 0 0 0 0 0 0 0 0 0 0 0 0 0 0 0
0 0 0 0 0 0 0 0 0 0 0 0 0 0 0 0 0 0 0 0 0 0 0 0 0 0 0 0 0 0 0 0 0 0 0 0 0 0 0 0 0 0 0
0 0 0 0 0 0 0 0 0 0 0 0 0 0 0 0 0 0 0 0 0 0 0 0 0 0 0 0 0 0 0 0 0 0 0 0 0 0 0 0 0 0 0
Wind_Speed
2 4 10 10 10 10 10 11 11 11 11 11 10 10 10 10 10 10 9 9 9 9 9 9 9 8 8 8 8 8 8 8 8 8 7 7 7 8 8 9 8 5 10
6 5 10 10 11 11 11 11 11 11 11 11 11 10 10 10 9 9 9 8 8 8 8 8 7 7 7 6 6 7 7 7 7 6 6 5 5 7 8 8 8 6 10
8 7 8 11 11 11 11 11 10 10 10 10 10 9 9 9 9 8 8 8 7 7 7 7 6 6 5 5 5 6 6 6 6 6 5 2 2 6 7 7 8 9 9
9 6 8 11 11 11 11 10 10 10 10 9 9 9 9 8 8 7 7 7 7 7 6 6 6 5 5 5 5 5 5 6 6 5 3 1 1 5 6 7 7 8 8
8 6 8 12 11 11 10 10 10 9 9 9 8 8 8 7 7 6 6 6 6 6 6 5 5 5 4 4 4 4 5 5 6 4 2 1 1 4 6 6 6 7 7
8 6 8 12 12 11 10 10 9 8 8 7 7 7 6 6 5 6 5 5 5 5 5 5 5 4 4 4 4 4 5 5 5 2 1 0 1 4 6 6 6 6 7
8 6 8 12 12 11 10 9 8 7 7 6 5 5 5 5 4 4 4 4 4 3 4 4 4 4 4 4 4 4 5 6 2 1 1 1 2 5 5 6 6 6 6
9 7 7 12 12 11 10 9 8 6 5 4 4 3 3 2 2 2 2 2 2 2 3 3 4 4 4 4 4 5 5 5 3 2 1 1 4 5 6 5 6 6 6
9 7 5 5 7 10 9 8 7 6 4 3 1 0 1 1 2 2 2 2 2 3 3 4 5 5 5 5 5 6 5 5 2 1 2 1 4 6 6 6 6 5 5
7 6 6 5 4 4 4 7 7 6 4 2 2 2 2 3 3 3 3 4 4 4 4 5 6 6 7 7 7 7 6 4 2 2 1 3 6 6 6 6 6 6 5
7 5 5 5 4 4 4 5 5 5 3 3 3 4 4 2 2 3 4 5 5 4 5 6 7 7 7 7 8 7 5 1 2 2 2 4 6 7 6 7 6 6 6
7 6 5 6 5 4 4 2 2 2 1 2 2 2 1 1 1 1 3 3 4 5 6 7 8 7 5 3 5 5 1 2 1 2 3 7 7 7 7 7 7 7 6
7 7 7 6 5 5 2 2 1 1 0 1 1 0 0 1 2 2 2 3 4 4 3 5 5 3 3 2 2 2 2 1 1 1 2 7 8 8 7 7 8 8 7
7 7 7 7 5 4 3 2 2 1 1 0 0 2 2 2 2 2 2 2 2 2 2 2 2 3 3 3 2 1 1 1 1 1 2 6 7 8 7 7 8 8 8
6 6 6 6 5 4 3 2 3 2 2 1 2 2 3 2 2 2 2 2 2 2 2 3 3 3 3 3 2 1 0 1 1 1 1 4 5 6 6 7 8 9 8
7 6 5 6 6 5 4 3 2 2 2 2 2 3 4 3 2 2 2 3 3 2 2 2 3 3 2 2 3 3 1 0 0 1 1 1 3 4 5 6 7 8 9
7 6 6 6 6 6 5 4 3 2 3 3 2 3 4 3 3 2 2 3 3 3 3 3 3 3 3 3 3 3 2 1 0 1 1 1 1 2 3 4 5 7 8
7 6 6 7 7 6 5 4 3 3 3 3 2 3 3 4 3 3 3 2 3 3 3 2 2 3 3 3 2 2 2 2 1 0 1 1 1 1 2 3 4 5 6
8 7 6 7 7 6 5 4 4 3 3 2 2 2 3 3 3 3 2 2 3 3 3 3 2 2 2 3 2 2 2 1 1 1 1 0 1 1 1 2 3 4 5
7 7 7 6 6 6 4 4 3 3 2 2 2 2 3 3 3 3 2 3 3 3 3 3 3 2 2 2 2 3 2 2 1 1 0 0 0 0 1 1 1 2 4
6 7 7 6 5 5 3 3 2 1 1 1 0 1 2 2 2 3 2 3 3 2 3 3 2 3 3 2 3 3 3 3 3 1 1 1 1 1 1 1 1 1 1
6 6 6 6 6 5 3 3 2 2 1 1 0 1 1 1 1 2 2 2 2 2 3 4 3 2 2 3 2 2 3 4 4 3 2 1 1 1 1 1 1 1 1
6 6 6 6 6 5 4 3 3 3 2 2 1 1 1 0 0 1 2 2 2 2 2 2 2 2 2 3 1 2 2 1 2 3 3 2 2 1 1 1 1 0 1
5 5 5 6 5 5 5 5 4 3 1 2 2 1 1 1 1 0 1 1 1 1 2 2 2 1 2 2 2 1 1 2 1 1 3 3 2 2 1 1 0 0 0
4 5 5 6 5 4 5 5 4 2 1 1 0 0 1 1 2 1 0 1 1 1 1 2 2 2 1 1 1 1 1 1 1 2 1 2 2 2 1 1 0 0 0
4 5 5 6 4 4 4 4 4 3 2 1 0 0 1 1 2 2 1 0 0 1 1 1 1 2 1 1 1 1 1 1 0 1 1 1 1 2 1 1 1 0 0
Wind_Direction
119 127 116 109 103 98 94 91 89 87 87 86 84 82 81 79 78 78 77 77 77 75 73 69 64 62 61 58 58 58 57 55 52 50 50 55 65 73 73 70 65 54 59
138 125 115 109 105 100 95 91 89 87 85 83 82 81 79 78 75 74 74 73 73 74 71 68 65 63 59 52 52 51 46 42 40 41 40 49 71 84 80 76 72 68 63
124 117 113 110 106 102 97 93 90 88 86 84 82 80 78 75 72 70 69 66 65 66 68 65 62 61 57 49 44 41 34 29 29 29 37 47 87 98 90 81 75 70 65
123 118 115 113 108 104 100 96 92 90 87 85 81 78 76 73 70 67 64 61 59 56 56 56 52 49 45 41 33 28 22 16 18 21 29 29 109 110 101 91 81 75 69
118 116 122 117 114 109 105 100 97 92 88 85 81 77 74 71 67 64 60 57 53 50 48 44 37 32 27 26 19 12 5 2 6 15 13 22 111 124 111 101 89 82 77
122 123 128 124 121 117 113 108 103 98 93 88 84 79 73 69 65 60 54 50 47 43 40 33 20 14 6 359 356 351 348 349 360 10 359 270 183 141 123 113 101 91 86
134 135 137 133 131 128 124 118 112 106 100 92 85 80 73 66 61 56 49 41 35 29 26 19 4 358 348 337 332 328 331 336 347 346 302 237 197 159 139 126 115 103 97
145 146 145 144 141 138 134 130 126 121 112 101 92 77 65 59 43 28 21 7 360 358 360 352 343 337 332 325 316 312 317 324 340 345 307 245 201 169 150 138 128 118 109
149 148 151 152 150 149 148 147 146 142 141 139 128 64 347 323 308 299 291 294 308 324 329 329 324 321 318 311 304 301 303 307 318 291 275 241 207 176 160 149 139 131 120
152 156 163 165 164 162 166 167 166 167 176 198 237 272 304 313 308 285 268 273 285 308 318 320 317 315 311 306 301 295 295 305 300 279 259 232 207 180 167 158 150 144 134
162 171 173 176 181 186 194 195 190 193 208 236 284 306 326 335 321 290 265 262 272 296 309 312 313 313 311 307 302 300 303 289 280 258 238 229 204 187 174 166 160 153 147
173 182 183 185 190 194 204 185 214 237 258 281 297 316 336 350 335 2 312 304 306 314 317 315 316 318 320 311 305 309 306 276 272 251 229 222 201 193 182 176 169 164 158
172 174 179 183 186 186 199 177 196 241 272 289 281 210 46 27 18 24 7 352 346 347 341 332 332 330 320 305 300 294 285 274 256 257 234 212 200 196 188 185 175 170 165
155 164 169 170 166 169 162 157 151 143 152 165 56 65 64 36 29 25 21 0 358 343 337 337 333 328 327 322 307 288 285 276 242 230 237 208 199 197 193 189 179 175 172
150 157 156 156 152 144 125 115 112 122 130 109 52 51 65 58 41 36 29 15 0 353 353 350 347 343 343 341 342 350 303 219 216 193 256 214 196 195 197 194 184 180 177
156 157 147 143 141 126 115 112 115 119 111 81 60 64 71 73 66 53 31 17 5 355 357 1 353 348 337 340 350 350 344 353 220 176 209 232 205 196 193 197 194 185 181
161 153 143 140 130 121 117 116 111 109 100 86 74 65 69 70 70 66 39 19 354 355 9 10 1 359 359 1 351 344 354 13 83 174 166 172 213 210 203 203 201 191 187
158 152 150 139 130 126 120 111 105 102 102 95 84 67 58 59 66 61 44 10 348 5 9 5 4 356 354 352 340 334 351 1 3 89 132 169 194 232 216 205 206 198 192
160 152 147 140 136 131 118 107 101 99 98 104 91 73 57 53 55 63 45 2 2 15 6 356 11 358 346 341 332 350 0 359 348 51 97 159 183 184 186 200 206 197 194
158 150 143 141 137 125 106 91 74 68 73 79 82 78 69 56 59 63 43 13 16 20 6 360 355 355 342 336 357 12 2 358 17 43 80 78 82 138 128 126 165 206 202
151 146 148 145 145 128 113 112 107 104 104 64 49 91 84 76 67 64 40 17 19 22 4 360 1 0 354 360 30 9 1 14 31 26 27 60 64 73 103 122 142 171 209
158 154 154 153 149 144 139 142 144 145 157 156 348 38 90 97 61 60 54 32 21 20 15 15 22 11 355 16 56 53 10 358 2 15 17 38 49 53 68 116 119 138 180
158 163 163 161 154 148 133 110 85 63 44 32 7 311 286 234 86 59 58 53 35 41 13 3 21 38 6 352 40 104 99 324 325 345 4 13 22 41 29 39 82 143 175
165 152 146 150 148 141 132 125 128 131 160 221 224 244 279 272 251 294 47 51 46 36 6 350 29 33 51 2 348 22 149 170 137 346 341 353 6 19 11 10 54 243 161
137 134 133 132 133 136 134 134 128 132 184 229 267 266 301 303 285 279 14 45 40 13 354 4 17 24 50 51 359 350 16 39 86 130 321 335 349 342 342 332 346 238 176
104 116 124 123 122 129 127 130 134 144 160 145 352 296 298 300 299 287 269 259 287 343 340 350 11 22 21 36 17 27 56 55 34 117 176 293 310 314 332 330 318 276 201